EHI
11 17 22 26 31 33 32 32 32 31 29 26 26 27 25 23 20 19 19 19 16 16 15 13 12 13 13 11 10 9 6 5 6 5 4 1 0 0 1 1 2 4 5
15 18 22 25 32 35 33 32 31 29 27 25 25 26 25 21 19 18 19 18 16 16 15 13 12 12 12 11 9 9 7 4 5 5 4 2 1 1 2 3 3 3 4
16 17 19 22 28 32 31 29 29 27 25 23 22 22 21 20 20 19 18 17 16 16 14 12 11 11 10 9 8 8 6 4 4 5 5 4 3 3 3 3 2 3 4
14 14 15 17 21 24 26 28 29 28 24 20 18 17 17 19 20 19 18 17 16 14 12 11 10 9 8 7 7 7 6 5 5 6 6 4 5 5 3 2 1 2 3
12 12 13 14 15 19 23 28 30 30 27 21 18 17 18 19 20 19 17 16 15 12 11 11 11 10 9 8 7 7 6 6 6 6 5 4 4 5 3 1 0 1 2
11 11 13 14 14 16 20 26 30 31 29 25 22 21 20 19 17 16 16 15 13 12 11 12 12 11 10 10 9 8 7 7 7 6 5 4 4 4 3 1 0 1 2
8 11 15 15 14 14 17 23 27 29 28 26 24 23 21 16 13 13 13 13 12 12 11 11 12 12 12 11 10 9 7 7 7 6 5 5 4 3 3 2 0 0 1
8 11 15 15 14 14 17 20 24 26 24 23 23 21 17 11 9 9 9 9 9 8 8 8 9 11 11 10 9 8 7 6 6 6 6 5 4 4 3 2 1 0 0
9 11 14 16 15 15 17 18 20 22 22 20 18 15 12 8 6 6 6 5 5 3 4 5 7 9 9 9 7 6 6 6 6 6 6 5 5 5 5 4 2 1 1
11 10 13 17 18 16 16 16 17 18 19 18 15 12 10 8 6 5 5 4 3 2 1 3 6 8 9 8 7 6 5 4 4 4 4 4 4 4 5 4 3 2 2
14 13 14 18 19 16 14 13 13 14 14 15 14 12 10 8 6 6 6 5 4 3 2 3 5 7 8 7 6 5 4 3 2 2 3 3 2 2 3 3 1 1 1
17 16 17 19 18 14 12 11 10 10 10 10 11 11 9 7 5 5 6 5 4 2 2 1 2 3 5 6 5 3 2 1 1 1 2 2 1 0 1 1 0 0 0
18 17 18 19 17 13 10 8 8 8 7 6 6 7 6 5 4 4 5 4 2 1 1 0 0 0 2 3 3 2 0 0 1 1 1 1 0 0 0 0 0 0 0
19 19 18 17 14 10 8 7 7 6 4 3 4 5 7 8 7 6 4 3 2 1 1 1 1 0 1 2 2 1 0 0 0 0 0 0 0 0 0 0 0 0 0
18 17 17 15 11 8 7 7 6 4 4 4 4 6 8 10 10 7 5 4 2 1 1 2 1 0 0 1 1 1 0 0 0 0 0 0 0 0 0 0 0 0 0
15 15 15 13 11 9 7 6 4 4 4 5 5 6 7 9 9 7 5 4 3 2 1 1 1 0 0 0 0 0 0 0 0 1 1 1 0 0 0 0 0 0 0
13 14 15 14 12 10 8 6 3 3 5 6 6 5 5 6 6 6 5 4 3 4 3 2 1 0 0 0 0 0 0 0 0 1 2 1 1 0 1 1 0 0 0
16 16 16 16 14 11 8 5 3 3 4 5 4 3 4 4 4 4 4 4 5 5 5 4 3 2 2 1 0 0 0 0 0 1 2 2 2 1 1 1 1 1 0
21 19 17 16 16 13 9 6 4 4 3 3 2 2 3 2 2 3 5 7 7 6 5 4 5 5 4 1 0 0 0 0 0 1 1 1 2 2 1 1 2 2 1
23 20 16 16 17 15 11 9 6 5 4 2 2 3 3 2 2 4 6 7 8 7 5 4 5 6 5 2 1 0 0 0 1 1 1 1 1 1 1 1 2 3 2
22 19 14 14 16 16 14 10 7 6 5 4 5 6 6 4 4 6 7 6 7 7 5 4 4 5 5 3 2 0 0 0 1 1 1 0 0 0 0 0 1 2 1
20 16 12 12 14 17 14 10 7 6 6 7 8 8 8 6 5 6 6 5 4 5 5 4 4 5 4 2 1 0 0 0 0 0 0 0 0 0 0 0 0 0 0
15 14 12 12 13 14 13 10 8 6 6 7 8 8 8 7 6 7 6 4 3 4 5 4 4 4 3 1 0 0 0 0 0 0 0 0 0 0 0 0 0 0 0
12 12 12 12 12 12 12 11 8 7 6 6 7 7 6 6 6 6 4 3 2 3 3 3 3 3 2 1 0 0 0 0 0 0 0 0 0 0 0 0 0 0 0
10 10 11 11 11 11 11 11 9 8 6 6 6 6 5 4 4 3 2 1 1 1 1 1 1 1 1 0 0 0 0 0 0 0 0 0 0 0 0 0 0 0 0
8 9 10 10 10 10 12 12 10 7 6 6 6 6 4 3 2 1 0 0 0 0 0 0 0 0 0 0 0 0 0 0 0 0 0 0 0 0 0 0 0 0 0
Wind_Speed
7 7 7 7 8 7 6 5 4 3 2 2 2 2 2 1 1 2 2 2 1 1 1 1 0 1 1 1 1 1 2 2 1 2 2 3 4 4 3 3 2 3 4
7 7 7 7 8 7 6 5 4 3 3 2 2 2 2 1 1 1 1 1 1 1 2 1 1 1 1 2 2 1 2 2 1 1 2 2 2 2 3 2 3 2 2
7 7 6 5 6 6 5 4 4 3 2 2 2 1 1 1 1 1 1 0 1 2 1 1 1 1 1 2 2 2 2 2 2 1 1 1 1 2 1 2 2 2 2
8 7 6 5 5 5 6 5 4 3 2 2 2 2 2 1 1 1 1 1 2 2 2 2 1 1 1 1 1 0 1 2 2 1 1 2 1 1 2 2 2 2 2
6 7 6 5 5 4 5 5 4 3 2 2 2 2 1 1 1 1 1 1 1 2 2 1 1 1 1 1 1 1 1 1 2 2 1 1 2 2 2 3 2 2 2
6 6 6 6 4 4 4 5 5 3 2 2 2 2 1 1 1 1 2 2 1 2 2 1 1 1 1 1 1 1 1 1 1 2 2 1 1 1 2 2 3 2 2
6 6 6 5 4 4 4 4 4 3 2 2 1 1 1 1 1 2 1 1 1 1 1 1 1 1 1 1 1 1 1 2 2 1 1 2 2 2 1 2 2 3 2
7 6 6 5 4 4 4 4 3 3 2 2 1 0 0 1 1 1 1 1 1 0 1 1 1 1 1 1 1 1 2 1 2 2 1 1 2 1 2 2 2 3 2
6 6 6 6 5 4 4 3 3 2 2 2 2 1 1 1 1 1 1 1 1 0 1 0 0 1 1 0 1 1 1 1 1 1 1 1 2 2 2 2 2 2 3
6 6 6 5 5 5 4 3 3 2 2 1 2 2 1 0 0 0 1 1 1 1 0 1 1 1 0 0 0 1 1 0 1 1 1 1 2 2 2 2 2 2 2
6 6 6 6 6 5 4 3 3 3 2 2 2 2 1 1 1 0 1 1 1 1 1 0 1 0 0 0 1 1 1 1 1 1 1 2 2 2 2 2 2 2 1
6 6 7 6 5 4 4 3 3 2 2 2 2 2 1 1 1 1 1 1 1 1 1 0 1 1 1 0 0 1 2 1 2 2 2 2 2 2 2 2 2 2 2
7 7 6 6 5 4 3 3 3 2 2 3 2 2 2 1 1 1 1 1 1 1 1 1 1 1 1 1 0 1 1 2 2 2 2 2 2 2 2 2 2 2 2
7 7 6 5 4 4 3 3 2 2 2 2 2 2 2 1 1 1 1 0 1 1 1 1 1 1 1 1 1 1 1 2 2 2 2 1 1 1 2 2 2 2 2
7 6 5 4 4 3 3 2 2 2 1 2 2 2 1 2 1 1 1 1 1 1 1 1 1 1 1 1 2 1 2 2 2 2 1 1 1 0 0 1 1 2 2
6 6 5 5 4 3 2 2 1 1 1 1 2 2 1 1 1 1 1 1 1 1 2 2 2 2 2 1 2 1 2 2 2 2 2 1 1 0 1 1 1 2 2
5 5 5 4 3 2 2 1 1 1 1 0 1 1 1 1 1 1 1 1 0 1 2 2 2 1 2 1 1 1 1 2 2 2 2 3 2 0 1 2 2 2 3
5 5 4 4 3 2 2 1 1 1 0 0 0 1 1 1 1 1 1 1 1 1 1 2 1 1 2 1 1 2 2 2 2 3 3 2 1 2 2 1 1 1 2
5 5 5 4 3 2 2 1 1 1 0 0 1 1 0 0 1 1 1 1 1 1 1 2 1 1 1 1 1 2 2 1 2 2 2 1 1 2 1 1 2 2 3
5 5 4 4 3 2 1 1 1 1 1 1 1 1 1 1 1 1 1 1 1 2 2 1 1 1 1 1 2 2 2 2 2 2 1 1 0 1 1 1 2 3 4
5 5 4 3 3 2 1 1 0 1 2 1 1 1 1 1 1 0 1 1 2 2 2 2 2 2 1 2 2 2 1 3 3 2 1 1 1 1 2 3 3 5 5
5 4 4 3 3 2 2 1 0 1 1 1 2 1 1 2 1 0 1 2 2 2 3 2 2 1 1 1 1 1 2 3 3 3 2 1 2 3 5 4 5 6 5
4 4 3 3 3 2 2 1 0 1 1 1 1 1 2 2 1 1 2 2 2 2 2 2 1 1 0 1 1 1 2 4 3 2 2 3 5 4 4 6 6 4 3
3 3 3 3 2 2 2 1 1 1 1 1 2 2 2 1 1 1 1 1 1 2 2 2 2 1 1 1 1 1 1 2 2 2 3 5 6 5 4 4 3 3 2
2 2 3 3 3 2 2 1 1 1 1 1 1 3 2 1 0 0 1 1 1 1 1 2 2 2 1 1 1 2 2 2 2 3 3 3 2 3 3 2 2 1 1
2 2 2 2 2 2 1 1 0 1 1 2 2 2 2 1 2 1 0 2 1 2 2 2 2 1 1 2 2 3 4 4 4 3 3 3 3 2 2 2 2 1 1
Wind_Direction
133 137 139 135 132 130 129 128 131 135 147 158 168 162 162 164 157 150 124 137 168 189 223 276 250 239 245 256 264 261 256 253 248 276 282 258 234 226 220 222 233 217 210
139 136 141 142 139 138 139 138 142 147 163 162 160 155 150 171 147 107 131 156 186 219 221 200 236 241 244 242 239 240 248 262 256 276 295 277 254 238 222 196 211 220 222
146 143 141 140 141 141 143 143 143 146 151 135 137 136 130 130 142 152 142 168 225 221 231 204 237 262 260 245 229 230 250 277 273 230 236 274 286 311 248 217 216 208 204
145 145 142 136 132 142 141 133 130 133 127 138 159 169 170 179 184 199 175 191 235 230 231 227 224 222 256 277 258 203 264 271 279 272 238 238 267 290 305 289 256 232 222
133 138 139 137 135 136 140 133 125 130 140 162 154 177 180 173 180 185 200 210 237 237 222 219 216 219 240 250 284 295 269 273 282 292 290 278 267 243 256 281 281 272 247
134 131 130 125 121 119 119 125 127 135 147 155 160 176 178 174 227 252 243 232 226 239 221 202 199 223 228 232 237 244 248 255 293 299 305 296 285 279 254 268 279 273 267
132 133 131 125 114 106 93 102 128 134 129 134 155 187 200 213 229 253 267 258 228 220 210 219 201 215 220 225 230 226 243 242 248 257 271 284 282 279 277 271 281 285 280
141 138 129 120 115 107 98 101 106 121 135 144 147 185 258 244 269 303 305 303 306 237 178 195 215 221 220 235 235 259 247 238 246 265 261 272 287 282 268 260 274 287 283
136 132 127 124 118 108 93 94 99 102 124 144 149 163 165 241 297 305 289 304 331 327 100 176 210 225 221 216 226 264 275 264 251 267 277 271 285 286 272 263 252 263 284
131 129 128 123 116 112 110 104 106 104 110 146 187 144 145 215 173 274 303 312 340 14 63 146 188 223 251 182 249 291 281 273 270 255 275 281 282 291 301 292 272 255 258
119 124 126 119 114 108 110 102 103 102 106 101 82 77 78 44 52 53 8 21 20 15 350 342 333 282 236 214 244 276 274 240 271 282 274 268 272 280 291 288 286 274 271
115 117 120 118 115 108 101 96 98 105 102 90 74 69 79 54 32 32 30 39 55 31 340 333 305 290 293 269 265 284 309 299 281 280 277 273 273 269 275 282 286 281 267
113 107 106 106 105 101 97 89 86 80 81 87 80 63 74 73 57 46 43 45 58 30 20 6 301 306 334 353 342 312 312 316 308 290 273 274 280 280 287 289 287 287 290
112 109 104 100 92 89 88 86 81 84 94 93 89 77 80 82 75 92 103 88 74 62 17 335 313 309 330 356 353 349 330 317 320 321 318 318 301 295 309 299 304 303 304
120 114 112 105 102 90 73 68 71 70 85 105 104 103 105 103 85 66 54 59 24 333 327 325 319 306 299 328 348 349 333 339 326 325 335 343 352 341 263 303 321 320 308
132 128 120 115 111 106 92 68 56 73 80 100 106 99 100 101 94 90 72 76 39 346 345 352 339 330 317 35 36 10 345 323 315 311 307 300 268 165 161 211 258 272 269
131 129 122 115 112 101 94 83 57 47 55 44 113 124 113 85 61 19 65 54 37 0 351 329 314 333 356 33 42 346 304 296 300 296 295 296 304 279 227 219 240 272 266
124 122 123 117 110 109 99 86 114 111 177 270 62 124 130 116 68 21 14 3 334 326 302 306 324 325 332 330 268 273 261 276 287 281 273 270 315 321 335 309 290 277 272
112 112 119 122 114 106 101 96 93 86 314 288 358 335 317 78 63 4 322 281 268 278 280 284 285 295 321 310 304 277 277 273 282 294 315 297 270 313 334 310 290 289 288
111 116 119 121 123 120 113 107 50 27 359 348 326 342 5 11 326 282 288 290 271 263 267 278 286 285 270 258 265 266 293 300 298 292 314 352 9 19 25 312 292 284 285
121 125 127 128 137 140 134 135 32 0 352 348 343 350 348 284 260 243 281 273 268 272 273 267 257 246 229 207 217 213 291 312 314 314 333 2 47 328 290 276 266 263 279
132 133 135 140 141 144 155 174 343 344 351 353 352 339 307 288 296 300 287 281 275 264 262 261 259 241 174 145 194 210 259 312 318 317 338 4 323 302 290 279 271 273 283
139 135 140 139 141 154 165 188 279 310 335 354 346 331 298 286 292 268 280 274 274 286 290 284 296 320 57 84 108 224 282 300 300 305 300 293 283 285 282 274 275 274 269
134 136 150 154 153 163 170 195 218 283 322 335 329 300 278 267 311 312 303 310 339 330 334 334 339 352 11 35 32 345 310 299 292 294 291 275 263 267 273 278 267 249 243
141 145 157 161 160 168 194 205 186 264 281 274 276 282 271 240 202 287 349 345 19 329 304 335 343 339 340 329 321 313 316 325 342 320 282 271 262 263 257 258 246 224 233
138 143 151 166 166 175 196 176 181 276 289 281 282 279 275 234 229 209 126 33 285 232 217 239 262 304 301 280 304 307 304 305 314 308 289 288 288 292 302 307 301 286 272